Wind_Speed
7 7 7 7 7 8 8 9 9 10 10 10 10 11 11 12 12 13 13 13 14 14 14 14 13 13 13 13 13 13 13 12 13 13 13 13 13 15 15 15 16 16 16 15
8 7 7 7 7 8 8 8 9 9 9 10 10 11 11 12 12 12 12 13 13 14 14 14 14 14 14 14 14 13 13 13 14 14 14 13 14 15 15 16 16 16 16 15
8 8 7 7 7 8 8 9 10 10 10 10 11 10 11 11 11 12 12 12 12 13 14 14 14 13 13 14 14 13 13 14 14 14 14 15 15 15 16 16 16 16 15 15
8 8 8 8 8 8 8 9 10 11 11 11 11 11 11 11 11 11 12 12 11 11 12 13 12 13 13 13 13 13 14 14 14 15 15 16 16 16 16 16 16 16 16 15
9 8 8 8 9 9 9 10 10 11 11 11 11 12 11 11 11 11 12 11 10 10 11 11 12 12 13 13 13 14 15 15 16 16 16 17 17 17 17 17 17 17 17 16
10 9 9 9 9 10 10 10 11 11 11 11 10 11 11 10 10 11 11 10 11 11 11 11 12 12 13 13 14 14 15 15 16 16 17 17 17 17 17 17 18 18 18 17
10 10 9 9 9 10 10 10 11 11 10 10 10 10 10 10 10 10 10 10 11 12 12 12 13 13 13 14 14 14 14 15 16 16 16 17 18 18 17 18 18 19 19 18
11 10 10 10 10 10 10 10 10 11 10 10 10 9 10 10 10 11 11 11 12 12 13 13 13 13 14 14 14 15 15 15 16 16 16 17 18 18 18 18 19 19 19 18
12 11 11 11 11 11 11 10 11 11 10 10 10 10 10 10 10 11 11 11 12 13 14 14 13 14 14 14 15 15 16 16 17 17 17 18 18 18 18 19 19 19 19 18
13 13 12 12 12 11 11 11 11 11 10 10 10 11 11 11 11 11 11 12 12 13 13 14 14 14 14 15 16 16 16 17 17 18 18 18 18 19 19 18 18 18 18 18
13 13 12 12 12 12 12 12 12 12 12 11 11 12 11 11 12 12 12 13 13 13 14 15 16 15 15 15 16 16 17 17 17 18 18 18 19 19 19 18 18 18 17 17
13 13 12 13 12 12 12 12 13 13 13 13 13 13 12 12 13 13 14 14 14 15 15 15 16 16 17 16 16 16 17 18 18 19 19 19 19 19 19 19 18 18 18 17
13 13 13 14 14 14 13 13 13 14 14 13 13 13 13 13 13 14 14 15 15 15 16 16 17 18 18 18 18 18 19 19 19 19 19 19 19 19 19 19 19 19 18 18
14 13 14 14 15 15 14 13 13 14 14 13 13 13 14 14 14 15 15 16 16 17 17 18 18 19 19 20 20 20 20 20 20 20 20 19 19 19 19 19 19 19 19 18
15 14 14 14 15 14 14 14 14 15 15 15 15 15 15 15 16 16 17 17 17 18 19 19 19 20 21 21 21 21 21 21 21 21 21 20 20 20 20 19 20 20 19 19
16 16 15 15 15 15 15 15 15 15 15 15 16 15 16 16 17 17 18 18 18 19 20 20 20 21 21 22 22 22 22 22 22 21 21 21 20 20 20 20 20 21 21 21
17 17 17 16 16 16 16 16 17 17 17 17 17 17 18 18 18 18 19 19 19 20 20 20 21 21 22 22 22 22 22 23 22 22 22 21 20 20 21 21 22 22 22 22
19 19 18 18 18 18 17 17 18 18 18 19 18 18 19 19 19 20 20 20 20 20 20 20 21 21 22 22 23 23 22 22 22 22 23 23 22 22 22 22 22 22 22 22
19 19 19 19 19 19 18 19 19 19 19 19 19 19 20 20 20 20 21 21 21 21 21 21 21 21 22 22 22 22 22 22 22 23 23 23 23 23 23 22 23 23 23 23
19 20 20 20 20 19 19 20 20 19 19 19 20 20 21 21 21 21 21 22 22 22 22 22 22 22 22 22 22 22 22 22 23 23 24 23 23 23 23 23 23 23 24 24
21 21 20 20 21 21 20 20 21 21 20 20 20 21 21 22 22 22 22 22 22 23 23 23 23 23 23 22 22 22 22 23 23 24 24 24 24 24 24 24 24 24 25 26
21 22 21 22 22 22 21 21 22 22 22 22 22 22 22 22 22 23 23 23 23 23 23 23 24 24 23 23 23 23 23 24 24 24 25 25 25 25 25 25 26 26 26 27
22 22 22 22 23 23 23 23 23 23 23 23 23 23 23 24 24 25 25 24 24 24 24 24 24 24 24 24 24 24 24 25 24 25 25 26 26 26 27 27 27 27 27 28
22 22 23 23 23 23 23 23 24 24 24 24 24 24 24 25 25 25 25 24 24 24 24 24 24 24 24 24 24 24 24 25 25 26 26 26 27 28 28 28 28 28 28 28
23 23 23 24 24 24 24 24 24 24 25 25 25 24 25 25 24 24 24 25 25 25 25 25 24 24 24 24 24 25 25 25 26 26 27 27 27 28 29 30 30 29 29 30
23 23 24 24 24 24 24 24 24 24 24 24 24 24 24 24 25 25 25 25 26 25 25 25 26 26 26 26 26 26 26 26 26 26 27 27 27 28 29 30 30 30 30 30
Wind_Direction
298 294 291 285 281 279 277 277 276 274 276 271 269 270 270 268 265 264 266 266 265 266 269 270 269 270 268 271 274 273 274 274 272 272 277 276 273 268 269 271 272 271 272 270
296 293 292 288 285 283 281 280 282 282 280 276 273 273 272 272 270 268 265 264 265 266 266 267 268 267 269 271 272 273 271 271 272 274 276 278 277 275 273 273 273 273 273 269
299 297 292 287 287 284 283 282 283 284 283 281 279 275 274 275 274 269 266 265 267 270 267 265 265 268 271 273 273 272 273 274 276 275 274 276 280 277 276 275 273 273 274 270
295 297 293 287 285 286 286 285 283 283 283 283 282 279 275 274 275 272 269 272 273 273 271 267 267 270 271 273 272 272 271 273 277 277 275 277 279 280 277 275 273 272 272 269
293 295 294 289 285 284 285 286 286 284 283 283 282 279 278 275 275 274 273 274 274 273 272 270 270 273 275 275 274 273 271 272 273 274 275 275 275 277 277 276 275 273 271 268
290 293 293 290 285 283 284 284 285 284 283 281 283 280 277 278 280 276 274 274 270 269 270 271 273 276 280 280 278 274 273 274 274 273 274 274 274 275 277 275 277 276 272 267
285 287 288 289 285 282 282 282 285 287 287 283 279 274 277 279 280 277 277 276 271 270 269 272 276 277 279 280 279 278 278 278 277 275 274 275 273 274 276 275 276 277 276 273
283 284 286 287 286 284 282 279 278 279 280 280 277 276 280 281 281 281 280 277 274 274 272 273 273 275 278 279 279 280 282 282 280 278 277 277 276 275 278 276 276 276 275 272
280 281 284 287 287 283 281 279 278 275 275 277 280 279 280 279 278 279 279 277 275 276 274 272 275 277 277 278 279 281 283 284 282 279 278 279 280 280 281 279 280 275 271 268
279 281 282 284 282 279 277 278 277 276 275 278 280 282 281 280 279 280 280 279 277 276 274 276 279 281 281 279 281 282 284 285 284 282 279 278 279 281 280 279 279 277 273 267
277 279 282 280 277 275 273 273 273 273 273 273 277 279 278 278 279 281 283 284 283 282 280 280 280 281 283 282 282 282 284 285 284 282 280 278 278 280 281 280 278 276 274 271
276 277 278 278 277 274 272 270 271 270 273 274 275 276 278 278 280 283 285 286 287 289 288 284 282 282 282 283 285 284 285 284 283 282 281 281 281 281 281 280 278 275 275 273
274 275 276 277 275 273 271 269 268 268 272 274 276 279 282 282 282 284 286 287 288 289 289 286 284 284 284 284 284 285 285 285 284 284 283 280 281 280 280 280 278 274 273 271
271 272 273 274 274 273 272 271 269 270 273 275 279 280 284 286 285 285 286 288 289 290 290 289 286 286 286 285 285 285 286 286 286 285 283 281 278 278 277 278 276 274 274 273
270 272 273 272 272 271 269 270 272 274 277 275 279 280 282 283 285 285 286 288 289 290 291 290 288 287 287 286 286 286 286 287 287 286 285 283 278 275 276 275 275 274 273 271
268 270 271 271 271 272 270 271 272 275 278 278 278 280 281 281 284 285 286 287 289 290 291 291 290 289 288 287 286 286 285 286 285 284 284 284 281 276 276 275 274 274 273 271
266 269 270 272 273 272 271 273 274 275 278 279 280 280 280 280 281 283 285 286 287 290 291 292 291 290 287 286 285 284 284 284 283 282 282 282 279 277 278 275 274 273 274 274
264 266 270 271 271 271 276 277 276 277 277 278 278 278 279 280 281 283 284 286 288 290 292 293 293 292 289 287 284 283 282 282 282 281 280 280 277 275 276 276 275 274 274 273
264 266 269 272 272 274 274 276 278 278 277 277 277 278 280 282 282 282 283 285 286 287 289 291 291 291 291 289 287 283 280 280 280 281 280 280 277 275 274 275 276 275 274 274
265 267 270 270 271 274 275 275 277 278 278 278 279 279 279 281 281 282 283 284 286 287 289 289 290 289 289 289 288 285 282 280 279 279 279 278 276 276 275 275 276 275 273 275
265 267 268 270 272 275 277 277 277 278 281 281 281 281 280 280 280 281 282 284 286 288 289 288 289 289 288 287 287 286 285 283 281 279 277 276 275 275 275 275 274 275 274 274
266 268 268 270 272 276 278 277 278 280 280 281 281 281 281 281 281 281 281 283 285 286 287 288 288 288 287 286 286 286 286 286 284 281 278 275 274 274 274 274 275 275 275 274
267 268 269 270 272 275 276 277 279 279 280 280 281 281 280 281 281 282 283 284 285 285 285 286 287 287 286 286 286 286 286 285 284 284 281 277 275 274 274 274 274 276 277 276
266 268 269 271 273 275 275 275 277 278 279 280 280 280 281 282 283 284 284 284 285 285 285 285 285 285 285 286 287 287 287 285 284 284 283 280 277 275 273 274 275 276 277 277
267 268 269 271 273 274 274 275 276 278 280 281 281 281 281 283 285 286 286 285 285 284 283 283 283 284 284 285 286 286 287 286 285 284 282 281 278 276 275 275 277 277 278 278
266 267 268 270 271 272 273 275 276 278 280 281 282 283 283 283 284 285 286 287 287 284 281 280 281 281 283 284 285 286 286 286 286 285 284 282 281 279 277 278 278 278 279 279
Height
5844 5844 5843 5843 5843 5843 5842 5842 5842 5842 5841 5841 5841 5840 5840 5840 5840 5840 5840 5840 5840 5839 5839 5839 5839 5839 5839 5839 5839 5838 5838 5837 5837 5837 5836 5835 5834 5834 5833 5833 5832 5832 5831 5831
5842 5842 5842 5841 5840 5840 5840 5840 5839 5839 5838 5838 5837 5837 5837 5836 5836 5836 5836 5836 5836 5836 5836 5836 5836 5836 5836 5836 5836 5835 5835 5834 5834 5833 5833 5832 5831 5831 5830 5829 5828 5827 5827 5826
5840 5840 5839 5838 5838 5838 5837 5837 5837 5836 5835 5835 5835 5835 5834 5834 5833 5833 5833 5833 5832 5832 5832 5832 5832 5832 5832 5832 5832 5832 5831 5831 5830 5830 5829 5829 5828 5827 5826 5825 5824 5823 5822 5822
5837 5837 5836 5836 5835 5835 5835 5834 5834 5833 5833 5832 5832 5832 5831 5830 5830 5830 5829 5829 5829 5829 5829 5829 5829 5829 5829 5829 5828 5828 5827 5827 5827 5826 5826 5825 5824 5823 5822 5821 5820 5819 5818 5817
5835 5834 5834 5833 5833 5832 5832 5831 5831 5830 5829 5829 5829 5828 5829 5827 5827 5827 5826 5826 5826 5826 5826 5826 5826 5825 5825 5825 5824 5824 5823 5823 5822 5822 5821 5821 5820 5819 5818 5817 5815 5815 5814 5813
5832 5832 5831 5830 5830 5829 5828 5828 5828 5827 5827 5827 5826 5826 5825 5824 5824 5823 5823 5823 5823 5822 5822 5822 5822 5822 5822 5821 5821 5820 5819 5819 5818 5818 5817 5816 5815 5814 5813 5812 5811 5810 5809 5809
5829 5829 5828 5827 5827 5826 5826 5826 5825 5824 5824 5824 5823 5822 5823 5821 5820 5820 5820 5819 5819 5819 5819 5819 5819 5819 5818 5818 5817 5816 5816 5815 5814 5813 5812 5812 5811 5810 5809 5807 5806 5805 5804 5804
5826 5826 5825 5824 5824 5823 5822 5823 5823 5823 5822 5821 5819 5819 5819 5818 5817 5817 5816 5816 5816 5815 5815 5815 5815 5815 5815 5814 5813 5813 5812 5811 5810 5809 5808 5807 5806 5805 5804 5803 5802 5801 5800 5799
5822 5823 5822 5821 5820 5820 5819 5819 5819 5819 5818 5817 5817 5816 5816 5814 5814 5813 5813 5813 5812 5812 5812 5811 5811 5811 5811 5810 5809 5808 5808 5807 5806 5805 5804 5803 5802 5801 5799 5798 5797 5796 5795 5794
5818 5819 5818 5817 5816 5816 5816 5816 5815 5815 5814 5814 5814 5813 5813 5811 5811 5810 5810 5809 5809 5808 5808 5807 5807 5807 5806 5806 5805 5804 5803 5802 5801 5800 5799 5798 5797 5796 5795 5793 5792 5791 5790 5789
5814 5815 5814 5813 5812 5812 5812 5812 5811 5811 5811 5811 5811 5812 5809 5808 5807 5807 5806 5806 5805 5804 5804 5803 5803 5802 5802 5801 5800 5799 5799 5798 5796 5795 5794 5792 5791 5791 5789 5788 5787 5786 5785 5785
5810 5810 5810 5810 5809 5808 5808 5808 5808 5808 5808 5807 5807 5809 5805 5804 5804 5803 5802 5802 5801 5800 5800 5799 5798 5798 5797 5796 5795 5794 5793 5792 5791 5790 5788 5787 5786 5785 5784 5783 5782 5781 5780 5780
5806 5806 5806 5805 5806 5805 5804 5804 5803 5804 5803 5803 5803 5805 5801 5800 5800 5799 5798 5798 5797 5796 5795 5795 5794 5793 5792 5791 5790 5789 5788 5787 5785 5784 5782 5781 5780 5780 5779 5778 5777 5776 5775 5775
5802 5802 5803 5802 5801 5800 5799 5799 5799 5799 5799 5799 5799 5799 5797 5796 5795 5795 5794 5793 5792 5792 5791 5790 5789 5788 5787 5786 5785 5784 5782 5781 5780 5778 5777 5776 5775 5774 5773 5772 5772 5771 5770 5770
5797 5797 5797 5796 5795 5795 5795 5795 5795 5794 5794 5794 5795 5794 5793 5792 5791 5790 5789 5788 5787 5786 5785 5784 5783 5782 5781 5780 5779 5778 5776 5775 5773 5772 5771 5769 5769 5768 5767 5766 5766 5765 5765 5764
5792 5792 5792 5792 5791 5790 5790 5790 5790 5790 5789 5789 5789 5789 5788 5786 5786 5785 5784 5783 5782 5781 5780 5778 5777 5776 5775 5773 5772 5771 5770 5768 5767 5766 5765 5763 5762 5761 5761 5760 5760 5759 5758 5758
5787 5787 5787 5787 5786 5785 5786 5786 5785 5785 5785 5784 5784 5784 5782 5781 5780 5779 5778 5777 5776 5775 5774 5772 5771 5769 5768 5766 5765 5764 5763 5762 5761 5760 5759 5757 5756 5755 5754 5754 5753 5753 5752 5752
5782 5782 5781 5781 5781 5781 5783 5781 5780 5780 5779 5778 5777 5777 5776 5775 5774 5773 5772 5771 5770 5769 5768 5766 5765 5763 5761 5759 5758 5757 5756 5755 5754 5753 5752 5751 5750 5749 5748 5748 5747 5746 5746 5745
5776 5776 5776 5775 5775 5775 5776 5775 5774 5774 5773 5772 5771 5771 5770 5769 5768 5767 5766 5765 5764 5762 5761 5760 5758 5757 5755 5753 5751 5750 5749 5748 5747 5746 5745 5744 5743 5743 5742 5741 5740 5740 5739 5738
5769 5770 5770 5769 5769 5769 5771 5769 5768 5768 5767 5766 5765 5764 5763 5762 5762 5761 5759 5758 5757 5755 5754 5753 5751 5750 5748 5746 5744 5743 5741 5741 5740 5739 5738 5737 5736 5736 5735 5734 5733 5733 5732 5731
5763 5763 5763 5763 5762 5762 5763 5762 5762 5762 5762 5760 5758 5757 5756 5755 5755 5754 5752 5751 5749 5748 5747 5745 5744 5742 5741 5739 5738 5736 5734 5733 5732 5731 5730 5729 5729 5728 5727 5727 5726 5725 5724 5724
5756 5756 5756 5756 5756 5758 5756 5755 5755 5755 5753 5752 5750 5750 5749 5748 5747 5745 5744 5743 5742 5740 5739 5737 5736 5735 5733 5732 5730 5729 5727 5726 5724 5723 5722 5721 5720 5720 5719 5718 5718 5717 5716 5715
5749 5750 5749 5750 5751 5750 5748 5748 5747 5746 5745 5744 5743 5742 5741 5740 5739 5737 5736 5735 5733 5732 5731 5729 5728 5727 5725 5724 5722 5721 5720 5718 5716 5715 5713 5712 5711 5711 5710 5709 5709 5708 5707 5706
5741 5741 5742 5742 5742 5741 5741 5739 5739 5738 5737 5736 5735 5734 5733 5732 5730 5729 5728 5727 5725 5724 5722 5721 5720 5719 5717 5716 5714 5713 5711 5710 5708 5706 5705 5703 5702 5701 5700 5700 5699 5698 5697 5696
5734 5733 5733 5733 5734 5733 5732 5732 5731 5730 5729 5728 5727 5726 5725 5724 5722 5721 5720 5718 5717 5715 5714 5713 5712 5710 5709 5708 5706 5705 5703 5701 5700 5698 5696 5694 5693 5692 5691 5690 5689 5688 5687 5686
5725 5725 5725 5726 5725 5725 5725 5724 5723 5722 5721 5720 5719 5718 5717 5716 5714 5713 5712 5710 5708 5707 5705 5704 5703 5702 5700 5699 5697 5696 5694 5693 5691 5689 5687 5686 5684 5682 5681 5680 5679 5677 5676 5675